Вернуться в каталог

STARLINK-30948

АктивенСвязьVLEO
NORAD 58525·PAYLOAD·🇺🇸 United States

Запущен Dec 7, 2023 с Cape Canaveral Space Force Station

Loading…

Ближайшие Пролёты (ближайшие 24 часа)

TLE

СвежийSource: CelesTrak SupGP

Эпоха: Sep 15, 2026, 02:43 UTC

1 58525C 23191T   26258.11368056  .00048399  00000+0  17526-2 0  2587
2 58525  43.0020 113.4972 0001387 275.8290  71.1275 15.27561648    14

Отслеживайте STARLINK-30948 в реальном времени с AllMySat

Download on the App Store